Location: Callao
(39.8979°N, 113.7141°W)
Time: 17:30:23
(UTC+00:00)

AO-91 - Pass Details

Date: 16 May 2021
Orbit: 453 x 808 km, 97.7° (Epoch: 15 June)

Event Time Altitude Azimuth Distance (km) Brightness Sun altitude
Rises 07:09:50 0° 10° (N) 2,777 ? -30.7°
Reaches altitude 10° 07:11:53 10° 9° (N) 1,928 ? -30.8°
Enters shadow 07:14:16 35° 4° (N) 1,013 ? -30.8°
